Location: Newark
(35.0033°N, 81.0878°W)
Time: 03:58:21
(UTC+00:00)

N. Korean satellite - Pass Details

Date: 13 August 2020
Orbit: 455 x 503 km, 97.2° (Epoch: 22 September)

Event Time Altitude Azimuth Distance (km) Brightness Sun altitude
Rises 10:01:31 0° 33° (NNE) 2,537 11.3 -8.8°
Reaches altitude 10° 10:04:18 10° 58° (ENE) 1,664 10.9 -8.3°
Maximum altitude 10:06:24 15° 94° (E) 1,389 9.9 -7.9°
Drops below altitude 10° 10:08:31 10° 131° (SE) 1,673 9.6 -7.5°
Sets 10:11:19 0° 155° (SSE) 2,558 10.3 -7.0°
